GFSFLT2_sfc_thetae_057.txt.gz
Theta_e
310 309 306 301 297 302 294 293 294 299 305 310 317 317 320 316 326 330 340 326 325 348 351 352 351 353 351 348 348 348 347 346
311 308 308 302 307 297 295 289 289 299 301 304 312 316 323 322 330 331 335 343 348 350 351 351 352 353 354 352 347 347 342 338
307 302 301 301 298 302 301 297 292 293 298 310 314 315 321 326 327 331 335 341 345 349 350 351 353 353 350 349 342 339 337 337
301 308 310 306 302 301 296 295 299 297 297 315 315 315 316 323 324 333 335 338 342 347 349 349 347 350 347 345 342 336 335 332
296 301 306 302 304 301 302 301 296 295 298 316 317 315 318 319 327 334 339 340 344 347 346 346 346 346 346 344 341 337 334 331
292 298 305 305 306 304 301 298 297 299 304 312 319 316 318 320 326 329 339 343 346 345 345 345 345 345 343 343 342 339 335 332
303 305 306 304 305 306 303 301 297 303 307 310 314 318 322 326 327 329 339 344 345 346 346 343 343 341 342 341 339 339 335 336
299 306 306 304 306 307 308 307 305 310 309 314 315 317 317 321 322 324 333 343 347 348 347 343 343 342 342 339 338 338 337 339
296 305 304 299 304 305 306 309 308 303 311 312 311 312 312 317 320 328 335 339 340 348 348 345 344 342 339 338 339 338 340 341
299 302 293 303 309 310 308 308 311 312 315 314 314 314 315 318 324 330 337 341 343 347 349 349 348 344 340 340 339 339 339 341
299 297 303 306 309 311 306 307 313 314 317 318 318 322 331 336 339 339 338 338 339 343 349 346 345 346 341 340 341 341 340 341
299 296 296 305 322 325 316 303 320 320 321 323 321 315 322 333 337 337 337 337 338 343 349 345 343 345 342 340 340 340 342 342
301 298 302 319 324 319 300 308 324 322 323 318 314 319 331 337 336 336 335 333 338 345 345 344 347 346 341 341 337 340 343 343
301 298 297 322 325 313 317 321 325 320 322 318 326 329 330 335 334 334 333 334 339 338 337 339 341 345 340 339 339 339 340 342
306 305 315 319 318 319 321 319 318 326 325 328 326 324 333 336 336 334 334 333 333 336 335 333 336 338 340 337 338 338 340 339
308 313 313 310 320 322 323 326 328 325 322 324 328 332 334 335 332 332 335 334 333 329 327 326 331 334 334 333 334 334 332 334
308 312 313 315 316 316 316 324 327 331 326 329 328 333 334 332 330 331 333 333 333 329 327 328 329 331 333 332 334 331 331 332
303 309 312 312 315 317 312 315 320 328 332 335 336 333 332 330 330 331 331 332 331 329 328 327 327 326 328 330 331 330 330 329
312 314 316 316 319 320 316 311 326 333 334 333 335 335 332 330 330 330 331 332 332 330 330 329 329 327 327 327 326 327 327 328

GFSFLT2_sfc_thetae_063.txt.gz
Theta_e
305 304 302 296 292 294 289 286 288 291 297 305 316 322 326 324 321 321 326 329 330 330 332 349 350 348 347 344 342 341 339 336
304 303 302 299 299 291 288 285 284 289 295 296 308 314 323 322 319 322 324 326 323 333 333 335 349 349 349 346 341 340 337 336
300 297 296 296 293 292 291 289 287 287 293 304 307 311 319 324 320 321 323 324 325 330 333 335 344 346 345 342 339 337 335 332
295 300 302 297 294 293 290 288 290 291 293 310 310 312 320 322 325 323 326 328 328 331 332 335 342 344 343 340 338 335 332 332
291 295 298 297 297 294 292 290 291 290 293 310 313 312 319 319 323 321 322 324 328 330 330 336 344 343 340 337 335 331 330 330
290 292 297 296 299 298 294 291 290 292 295 307 310 311 314 319 321 320 324 324 324 325 331 342 343 341 337 334 333 329 326 327
294 298 300 299 300 300 296 295 293 295 300 304 310 311 313 315 323 324 328 333 328 328 339 342 340 340 337 334 331 327 324 326
292 300 301 300 301 302 301 301 303 302 303 309 313 312 313 315 317 324 333 340 340 343 341 341 341 339 339 334 331 326 326 328
292 299 298 292 298 300 301 305 306 301 306 311 312 312 312 314 321 322 326 340 340 341 341 340 340 340 337 336 333 328 329 332
295 295 287 295 312 313 307 314 315 313 312 311 314 315 313 317 317 321 325 342 341 340 338 339 338 337 336 336 333 329 331 334
292 292 296 303 311 312 310 306 317 315 316 313 316 315 313 328 317 326 332 338 339 339 341 339 337 336 335 334 333 331 334 335
293 290 289 302 313 318 318 299 317 317 316 310 314 307 309 328 331 332 334 334 338 340 340 337 336 335 334 332 332 332 335 336
292 291 299 310 314 316 297 300 317 319 318 316 315 317 327 329 329 332 333 334 337 337 338 337 334 334 332 330 330 334 336 337
295 291 290 312 312 307 310 313 317 316 318 316 317 321 329 329 330 331 332 333 333 331 332 333 335 333 332 330 333 333 334 335
300 300 308 310 307 311 313 311 312 314 319 321 320 320 326 329 330 331 331 332 332 329 329 330 330 333 334 332 333 334 333 335
301 305 307 311 312 312 313 312 314 316 316 319 317 320 325 328 330 331 331 329 328 329 329 328 329 332 328 329 330 331 329 330
302 304 307 311 311 312 314 316 317 317 317 319 319 319 323 325 322 324 328 328 326 325 326 328 329 330 331 331 330 328 326 325
296 304 303 304 310 317 315 317 317 314 315 315 319 319 320 323 325 327 328 326 324 323 323 325 326 327 327 329 328 325 324 324
305 309 309 312 315 319 317 319 317 316 315 313 316 321 321 325 326 325 328 327 325 324 324 323 323 323 324 324 324 322 320 321

GFSFLT2_sfc_thetae_069.txt.gz
Theta_e
306 308 309 303 302 304 300 298 299 301 305 310 314 322 328 327 328 328 332 337 342 345 347 350 345 338 339 339 340 345 346 349
306 308 306 307 307 301 302 296 294 298 300 303 314 316 327 327 328 331 334 337 341 340 339 344 350 356 344 344 345 346 349 352
305 306 305 303 303 301 303 301 297 296 300 316 316 320 328 329 331 335 335 337 335 336 340 342 350 351 349 350 347 346 349 349
302 305 306 306 306 307 300 300 301 302 301 312 316 320 329 330 332 332 328 329 334 335 339 341 346 347 349 347 345 347 348 347
300 302 305 305 304 305 305 306 303 300 302 315 318 320 323 328 331 331 329 331 333 335 337 339 338 336 340 345 346 348 347 343
298 302 305 304 304 304 306 303 303 304 306 312 317 318 321 324 333 330 328 329 331 335 337 335 338 336 338 344 347 347 346 342
302 302 304 305 305 304 304 307 305 307 307 313 320 319 321 324 330 331 330 331 331 334 338 339 340 341 343 344 348 346 344 341
302 306 305 306 306 305 305 304 308 309 309 323 322 321 321 322 324 328 331 335 331 332 333 340 345 345 344 347 346 344 343 341
300 305 303 303 311 310 315 317 315 310 317 322 321 320 321 323 323 325 329 330 333 334 335 338 346 347 343 345 343 341 341 342
303 303 295 310 320 319 316 316 318 318 320 322 322 322 332 334 328 326 327 330 335 342 345 342 347 346 342 343 339 337 339 339
302 300 304 309 313 315 314 314 318 318 321 323 326 322 324 334 337 334 335 335 342 353 350 348 347 344 342 340 339 336 336 338
303 298 296 308 313 318 319 309 319 319 321 321 326 317 324 333 335 335 336 343 350 352 350 347 345 345 341 339 336 335 335 339
300 298 303 312 313 318 308 308 318 320 321 319 320 322 327 337 336 336 335 334 347 351 349 349 348 346 342 340 340 341 339 339
299 299 298 313 314 311 315 319 317 319 319 317 320 326 328 330 336 336 335 336 340 347 349 349 348 345 343 342 346 344 343 342
307 306 314 316 314 316 316 316 317 318 320 320 320 322 324 326 330 336 336 337 339 338 339 344 346 344 345 346 343 343 342 342
307 313 314 316 317 318 319 319 321 322 321 321 319 320 320 322 325 328 333 336 338 338 336 337 339 345 346 345 343 343 342 340
306 312 314 314 317 318 319 320 320 320 319 318 321 321 321 322 324 326 329 333 334 334 334 334 335 337 340 343 344 342 342 341
303 312 312 313 317 320 319 320 320 319 320 323 322 320 322 322 324 326 329 334 334 335 333 332 330 332 335 338 341 339 335 334
311 314 316 317 319 321 321 322 322 323 324 324 324 324 323 321 325 322 330 331 330 331 331 329 328 327 329 333 337 335 331 332

GFSFLT2_sfc_thetae_075.txt.gz
Theta_e
314 314 312 309 306 311 306 308 303 307 312 316 317 317 318 320 331 332 339 340 342 353 355 355 353 351 347 347 351 353 351 356
313 314 313 310 313 305 306 300 299 304 306 307 314 314 324 330 334 337 342 345 346 351 354 353 353 354 353 351 353 355 353 360
312 309 308 308 307 309 310 307 301 300 303 317 316 323 326 333 338 338 342 345 348 350 353 352 352 354 352 352 347 354 357 360
307 312 314 313 310 310 304 304 307 306 305 320 322 325 328 335 338 341 342 346 346 348 350 351 352 354 354 351 348 355 356 356
304 309 312 309 311 312 311 310 306 302 305 323 325 329 331 335 339 341 344 344 345 347 346 349 350 354 353 350 354 355 355 353
301 306 309 307 308 310 310 306 307 307 310 322 325 326 329 332 340 338 341 344 344 344 345 349 351 356 354 353 354 353 352 350
309 309 309 308 308 308 307 309 306 309 314 322 326 328 330 330 338 340 339 340 342 341 344 349 349 355 354 353 352 353 353 348
308 309 309 307 309 309 309 309 310 310 311 325 328 334 332 332 331 337 340 340 342 342 345 347 347 347 351 352 352 353 353 347
304 308 308 304 307 308 309 311 312 311 322 327 327 332 334 335 334 332 335 340 343 344 344 348 347 346 345 351 356 357 354 350
306 308 298 313 321 315 314 320 322 325 325 327 329 335 337 340 339 339 339 338 340 343 345 347 349 350 353 353 356 355 353 350
304 303 310 316 318 317 317 319 325 325 326 327 329 336 334 338 341 341 343 344 346 351 347 347 347 351 352 355 355 353 351 352
306 301 298 315 322 327 326 315 326 328 327 326 328 320 328 336 340 343 343 344 346 351 357 357 356 352 355 354 353 349 352 354
302 301 307 317 321 324 310 314 325 327 327 327 325 328 332 333 335 340 340 345 346 348 348 352 355 354 351 354 351 352 355 355
304 301 298 322 321 318 323 326 326 327 327 327 328 328 329 331 332 334 336 340 343 346 347 347 345 352 351 353 355 357 355 354
315 312 321 323 321 323 326 326 325 325 326 327 327 326 327 328 330 331 334 337 340 340 344 348 344 343 344 350 356 354 353 354
316 317 318 320 323 324 324 324 325 326 326 328 326 327 328 330 330 332 333 334 337 338 341 342 347 346 347 349 352 353 351 352
316 316 317 320 321 323 324 325 325 326 326 326 327 327 327 329 330 330 334 336 337 338 339 340 343 344 346 346 348 347 351 351
310 317 319 320 323 323 321 320 322 323 324 325 326 327 328 328 330 331 332 333 334 335 335 335 339 340 341 343 344 343 343 343
317 322 322 322 321 320 320 321 323 324 325 324 327 329 328 327 330 327 331 332 330 332 332 334 334 331 333 341 342 343 340 340